Timestamp[UTC];2m Lufttemperatur [degC] (tas);Stations-Luftdruck [Pa] (ps);relative Luftfeuchtigkeit [%] (hurs);spezifische Luftfeuchtigkeit [kg/kg] (huss);Niederschlagsmenge [mm] (pr);Windgeschwindigkeit in 2m [m/s] (sfcWind);Windrichtung [deg];maximale Windgeschwindigkeit [m/s] (wsgsmax);u-Windkomponente [m/s] (uas);v-Windkomponente [m/s] (vas);Sonneneinstrahlung [W/m2];Blitzrate [n];Blitzentfernung [km];Bodenfeuchte in 5cm Tiefe [vol%];Bodenfeuchte in 15cm Tiefe [vol%];Bodenfeuchte in 30cm Tiefe [vol%];Bodenfeuchte in 60cm Tiefe [vol%];Bodentemperatur in 5cm Tiefe [degC];Bodentemperatur in 15cm Tiefe [degC];Bodentemperatur in 30cm Tiefe [degC];Bodentemperatur in 60cm Tiefe [degC];Matrixpotential in 30cm Tiefe [kPa];Bodenfeuchte aus CRNS [vol%] (mrso);Neutronen Anzahl [N/h]
2023-10-01 00:00:00;10,5;100460;88;0,0069;0,02;2,6;168;3,6;0,54;-2,54;0;0;nan;12,6;15,7;15,8;22,0;14,1;15,6;16,7;16,8;-1468,8;18,6;1755
2023-10-01 01:00:00;10,1;100416;88;0,0068;0,02;1,6;131;2,6;1,09;-0,94;0;0;nan;12,5;15,7;15,8;22,0;14,0;15,4;16,6;16,8;-1656,9;18,5;1758
2023-10-01 02:00:00;9,3;100364;89;0,0065;0,02;0,8;51;1,2;0,59;0,48;0;0;nan;12,7;15,6;15,8;22,0;13,8;15,2;16,5;16,8;-1537,5;18,5;1757
2023-10-01 03:00:00;10,5;100362;86;0,0068;0,0;0,5;75;0,9;0,45;0,12;0;0;nan;12,6;15,6;15,8;22,0;13,6;15,0;16,4;16,8;-3823,0;18,8;1750
2023-10-01 04:00:00;10,8;100357;88;0,0071;0,0;0,9;75;1,3;0,87;0,22;0;0;nan;12,6;15,6;15,8;22,0;13,4;14,8;16,3;16,8;-1780,2;18,5;1758
2023-10-01 05:00:00;10,3;100354;88;0,0069;0,02;0,9;39;1,6;0,55;0,69;4;0;nan;12,5;15,6;15,8;22,0;13,2;14,7;16,2;16,8;-9990,0;18,5;1759
2023-10-01 06:00:00;12,0;100360;88;0,0077;0,0;0,6;114;1,2;0,48;-0,21;82;0;nan;12,4;15,6;15,8;22,0;13,1;14,5;16,1;16,7;-9990,0;18,4;1760
2023-10-01 07:00:00;16,1;100355;79;0,009;0,0;1,8;191;3,0;-0,32;-1,62;218;0;nan;12,4;15,6;15,8;22,0;13,2;14,4;16,0;16,8;-9990,0;18,5;1760
2023-10-01 08:00:00;18,3;100366;71;0,0093;0,0;3,5;205;5,2;-1,45;-3,14;341;0;nan;12,4;15,6;15,8;22,0;13,7;14,4;16,0;16,7;-9990,0;18,2;1766
2023-10-01 09:00:00;19,5;100345;67;0,0094;0,0;3,1;218;4,4;-1,84;-2,38;430;0;nan;12,5;15,6;15,8;22,0;14,4;14,6;15,9;16,7;-9990,0;18,4;1761
2023-10-01 10:00:00;20,9;100342;64;0,0098;0,0;2,5;204;4,1;-0,96;-2,14;469;0;nan;12,7;15,6;15,8;22,0;15,3;14,9;15,8;16,7;-9990,0;18,9;1748
2023-10-01 11:00:00;22,4;100292;59;0,0099;0,0;2,9;186;4,8;-0,28;-2,88;495;0;nan;12,7;15,6;15,7;22,0;16,3;15,3;15,8;16,7;-9990,0;18,9;1747
2023-10-01 12:00:00;23,7;100232;54;0,0098;0,0;2,6;197;4,7;-0,71;-2,37;424;0;nan;12,7;15,6;15,7;22,0;17,2;15,8;15,8;16,7;-9990,0;18,9;1747
2023-10-01 13:00:00;24,4;100200;52;0,01;0,0;2,3;217;4,2;-1,37;-1,79;370;0;nan;12,6;15,7;15,7;22,0;17,8;16,3;15,8;16,7;-9990,0;18,9;1748
2023-10-01 14:00:00;24,8;100154;52;0,0101;0,0;2,7;197;4,9;-0,8;-2,58;296;5;6;12,6;15,7;15,7;22,0;18,2;16,7;15,9;16,6;-9990,0;19,8;1724
2023-10-01 15:00:00;24,5;100125;52;0,0101;0,0;3,2;199;4,4;-1,01;-2,99;168;0;nan;12,6;15,7;15,7;22,0;18,3;17,1;16,0;16,6;-9990,0;19,7;1725
2023-10-01 16:00:00;23,5;100126;55;0,0099;0,0;3,0;192;5,0;-0,63;-2,93;70;0;nan;12,6;15,7;15,8;22,0;18,1;17,3;16,2;16,6;-9990,0;19,9;1721
2023-10-01 17:00:00;21,3;100142;60;0,0095;0,0;2,9;198;3,9;-0,88;-2,7;4;0;nan;12,7;15,7;15,8;22,0;17,9;17,4;16,3;16,6;-9990,0;20,1;1716
2023-10-01 18:00:00;19,7;100161;66;0,0094;0,0;2,1;179;3,2;0,02;-1,83;0;0;nan;12,6;15,7;15,8;22,0;17,5;17,4;16,4;16,5;-9990,0;20,0;1717
2023-10-01 19:00:00;18,2;100158;72;0,0094;0,0;1,8;156;3,4;0,69;-1,58;0;0;nan;12,7;15,7;15,8;22,0;17,2;17,3;16,5;16,5;-5904,4;20,0;1718
2023-10-01 20:00:00;19,0;100127;70;0,0096;0,0;1,9;184;3,4;-0,14;-1,88;0;0;nan;12,6;15,7;15,8;22,0;16,8;17,2;16,6;16,5;-1698,6;19,9;1720
2023-10-01 21:00:00;19,6;100104;68;0,0096;0,0;3,5;200;5,7;-1,2;-3,31;0;0;nan;12,6;15,7;15,8;22,0;16,6;17,0;16,6;16,5;-1721,0;20,1;1716
2023-10-01 22:00:00;17,7;100102;73;0,0092;0,0;1,2;184;2,8;-0,02;-0,37;0;0;nan;12,6;15,7;15,8;22,0;16,4;16,9;16,7;16,5;-1692,5;20,1;1715
2023-10-01 23:00:00;17,0;100095;74;0,0089;0,0;1,5;142;2,4;0,84;-1,09;0;0;nan;12,6;15,7;15,8;22,0;16,2;16,8;16,7;16,5;-1704,5;20,1;1714
2023-10-02 00:00:00;15,0;100085;80;0,0085;0,0;0,7;55;1,3;0,46;0,32;0;0;nan;12,6;15,7;15,8;22,0;16,0;16,6;16,7;16,6;-1658,2;20,0;1718
2023-10-02 01:00:00;14,9;100084;79;0,0084;0,0;0,4;28;1,0;0,11;0,2;0;0;nan;12,6;15,7;15,8;22,0;15,7;16,5;16,7;16,6;-1519,4;20,0;1718
2023-10-02 02:00:00;14,9;100068;80;0,0084;0,0;0,7;111;1,5;0,56;-0,22;0;0;nan;12,6;15,7;15,8;22,0;15,4;16,3;16,6;16,6;-1705,9;19,9;1721
2023-10-02 03:00:00;15,9;100053;77;0,0087;0,0;1,7;152;2,7;0,81;-1,49;0;0;nan;12,5;15,6;15,8;22,0;15,2;16,2;16,6;16,6;-1786,8;19,5;1732
2023-10-02 04:00:00;14,8;100015;80;0,0084;0,0;1,8;137;2,8;1,19;-1,27;0;0;nan;12,5;15,6;15,8;22,0;15,1;16,0;16,6;16,6;-1806,0;19,4;1733
2023-10-02 05:00:00;14,5;99995;80;0,0083;0,0;2,3;140;3,4;1,49;-1,78;4;0;nan;12,4;15,6;15,8;22,0;14,9;15,9;16,5;16,6;-3825,5;19,5;1732
2023-10-02 06:00:00;15,2;100008;81;0,0087;0,0;2,5;135;3,8;1,79;-1,82;78;0;nan;12,5;15,6;15,8;22,0;14,8;15,8;16,5;16,6;-5922,1;19,5;1731
2023-10-02 07:00:00;18,1;100020;75;0,0098;0,0;2,4;139;3,5;1,53;-1,79;213;0;nan;12,7;15,6;15,8;22,0;14,9;15,7;16,4;16,6;-7992,2;19,5;1731
2023-10-02 08:00:00;21,4;100010;68;0,0107;0,0;1,6;135;2,8;1,08;-1,1;326;0;nan;12,6;15,6;15,8;22,0;15,3;15,7;16,4;16,6;-7985,1;19,6;1729
2023-10-02 09:00:00;22,9;99984;62;0,0109;0,0;2,4;151;3,8;1,15;-2,07;407;0;nan;12,8;15,6;15,8;22,0;16,1;15,9;16,3;16,6;-7953,0;19,6;1728
2023-10-02 10:00:00;24,8;99965;56;0,0109;0,0;2,4;172;4,1;0,34;-2,36;422;0;nan;12,8;15,6;15,8;22,0;17,1;16,2;16,3;16,6;-9990,0;18,8;1750
2023-10-02 11:00:00;25,8;99932;50;0,0105;0,0;3,6;191;6,1;-0,66;-3,51;473;0;nan;12,7;15,6;15,7;22,0;17,9;16,6;16,3;16,6;-9990,0;18,8;1750
2023-10-02 12:00:00;26,4;99886;53;0,0114;0,0;2,2;188;4,1;-0,27;-1,97;422;0;nan;12,7;15,6;15,7;22,0;18,6;17,1;16,3;16,6;-9990,0;18,8;1751
2023-10-02 13:00:00;27,1;99826;46;0,0103;0,0;3,2;226;4,9;-2,1;-2,02;349;0;nan;12,7;15,6;15,7;22,0;19,2;17,5;16,4;16,6;-7971,7;18,7;1753
2023-10-02 14:00:00;27,0;99764;45;0,01;0,0;4,1;200;6,0;-1,42;-3,84;257;1;14;12,7;15,6;15,7;22,0;19,4;17,9;16,5;16,6;-5938,2;18,0;1772
2023-10-02 15:00:00;26,6;99702;47;0,0103;0,0;1,4;199;2,3;-0,44;-1,28;160;0;nan;12,7;15,7;15,7;22,0;19,4;18,2;16,6;16,6;-5828,6;17,9;1775
2023-10-02 16:00:00;25,2;99686;47;0,0095;0,0;1,4;176;2,1;0,1;-1,37;55;0;nan;12,7;15,7;15,7;22,0;19,3;18,4;16,8;16,6;-1764,8;18,2;1766
2023-10-02 17:00:00;21,7;99675;57;0,0092;0,0;1,1;160;1,6;0,36;-0,99;3;0;nan;12,8;15,7;15,8;22,0;18,9;18,4;16,9;16,6;-1587,0;18,3;1766
2023-10-02 18:00:00;19,7;99620;62;0,0089;0,0;1,9;141;3,5;1,21;-1,51;0;0;nan;12,8;15,7;15,8;22,0;18,3;18,3;17,0;16,6;-1470,6;18,2;1768
2023-10-02 19:00:00;19,1;99570;68;0,0094;0,0;2,1;131;3,2;1,56;-1,33;0;0;nan;12,7;15,7;15,8;22,0;17,8;18,1;17,1;16,6;-1439,4;18,1;1772
2023-10-02 20:00:00;18,1;99542;70;0,0091;0,0;1,9;127;3,0;1,52;-1,14;0;0;nan;12,7;15,6;15,8;22,0;17,4;17,9;17,2;16,6;-1433,9;18,0;1775
2023-10-02 21:00:00;17,9;99462;73;0,0094;0,0;2,0;142;3,7;1,24;-1,57;0;0;nan;12,7;15,6;15,8;22,0;17,1;17,7;17,2;16,6;-1424,6;17,8;1780
2023-10-02 22:00:00;20,2;99384;67;0,0099;0,0;3,4;180;6,4;0,02;-3,15;0;0;nan;12,7;15,6;15,8;22,0;16,8;17,5;17,2;16,6;-1388,0;17,9;1777
2023-10-02 23:00:00;20,7;99312;65;0,01;0,0;3,9;184;6,9;-0,25;-3,88;0;0;nan;12,7;15,6;15,8;22,0;16,7;17,3;17,2;16,6;-1438,8;17,6;1784
2023-10-03 00:00:00;20,0;99252;67;0,0098;0,0;2,4;175;5,0;0,19;-2,4;0;0;nan;12,7;15,6;15,8;22,0;16,6;17,2;17,2;16,6;-1365,8;17,7;1782
2023-10-03 01:00:00;19,2;99172;71;0,0099;0,0;1,9;148;3,8;0,69;-1,1;0;0;nan;12,7;15,6;15,8;22,0;16,6;17,1;17,1;16,7;-1406,1;17,7;1782
2023-10-03 02:00:00;21,4;99082;62;0,0099;0,0;5,9;204;9,2;-2,38;-5,36;0;0;nan;12,7;15,6;15,8;22,0;16,5;17,0;17,1;16,7;-1461,3;17,7;1783
2023-10-03 03:00:00;21,3;98995;59;0,0095;0,0;7,1;204;10,5;-2,87;-6,47;0;0;nan;12,7;15,6;15,8;22,0;16,6;17,0;17,1;16,7;-1479,0;17,8;1780
2023-10-03 04:00:00;20,8;98986;61;0,0095;0,0;6,6;219;10,7;-3,97;-4,99;0;0;nan;12,7;15,6;15,7;22,0;16,6;17,0;17,0;16,7;-1481,7;18,0;1773
2023-10-03 05:00:00;19,7;99063;65;0,0094;0,0;5,0;232;7,5;-3,83;-3,01;1;0;nan;12,6;15,6;15,7;22,0;16,6;17,0;17,0;16,7;-1469,0;18,0;1773
2023-10-03 06:00:00;19,3;99134;67;0,0095;0,0;3,5;225;4,8;-2,38;-2,35;18;0;nan;12,6;15,6;15,7;22,0;16,6;16,9;17,0;16,7;-1523,9;18,1;1770
2023-10-03 07:00:00;19,4;99224;69;0,0098;0,0;3,0;215;5,3;-1,67;-2,42;52;0;nan;12,6;15,6;15,7;22,0;16,6;16,9;17,0;16,7;-1784,3;18,3;1765
2023-10-03 08:00:00;19,7;99286;70;0,0102;0,0;3,5;230;5,5;-2,72;-2,24;62;0;nan;12,6;15,6;15,7;22,0;16,7;16,9;17,0;16,7;-1495,0;18,4;1763
2023-10-03 09:00:00;19,8;99325;73;0,0106;0,0;3,7;234;6,9;-2,92;-2,13;116;0;nan;12,6;15,6;15,7;22,0;16,9;17,0;17,0;16,7;-1556,2;18,3;1765
2023-10-03 10:00:00;20,2;99353;71;0,0105;0,0;3,0;255;5,3;-2,82;-0,74;90;0;nan;12,6;15,6;15,7;22,0;17,2;17,1;16,9;16,7;-1629,8;18,3;1765
2023-10-03 11:00:00;17,8;99382;82;0,0104;1,49;3,7;271;6,4;-3,63;0,05;45;0;nan;12,6;15,6;15,7;22,0;17,4;17,2;16,9;16,7;-1632,1;18,4;1763
2023-10-03 12:00:00;15,8;99497;91;0,0103;1,86;4,4;290;7,0;-4,04;1,45;80;0;nan;12,6;15,6;15,7;22,0;17,4;17,3;17,0;16,7;-1592,7;18,4;1762
2023-10-03 13:00:00;15,2;99620;91;0,0099;1,11;5,0;290;7,4;-4,69;1,67;94;0;nan;12,6;15,6;15,7;22,0;17,2;17,3;17,0;16,7;-1590,8;18,4;1762
2023-10-03 14:00:00;17,0;99702;79;0,0096;0,0;6,6;292;10,9;-6,03;2,43;293;0;nan;12,5;15,6;15,7;22,0;17,2;17,3;17,0;16,7;-1588,7;18,4;1762
2023-10-03 15:00:00;16,7;99820;70;0,0083;0,0;7,5;294;12,1;-6,79;3,07;152;0;nan;12,5;15,6;15,7;22,0;17,1;17,3;17,0;16,7;-1660,7;18,6;1757
2023-10-03 16:00:00;15,6;99990;74;0,0082;0,0;4,8;316;8,1;-3,16;3,28;62;0;nan;12,5;15,6;15,7;22,0;16,9;17,2;17,0;16,7;-1559,7;18,3;1764
2023-10-03 17:00:00;14,3;100176;78;0,008;0,0;2,9;310;4,5;-2,13;1,78;2;0;nan;12,5;15,6;15,7;22,0;16,6;17,1;17,0;16,7;-1530,3;18,4;1761
2023-10-03 18:00:00;13,1;100311;72;0,0068;0,0;1,8;260;3,2;-1,56;-0,28;0;0;nan;12,5;15,6;15,7;22,0;16,2;16,9;17,0;16,7;-1536,1;18,5;1759
2023-10-03 19:00:00;12,0;100388;75;0,0066;0,0;1,6;211;2,7;-0,85;-1,39;0;0;nan;12,5;15,6;15,7;22,0;15,8;16,7;17,0;16,7;-1562,5;18,5;1758
2023-10-03 20:00:00;12,8;100455;74;0,0068;0,0;3,0;231;4,6;-2,26;-1,86;0;0;nan;12,5;15,6;15,7;22,0;15,3;16,5;17,0;16,8;-3739,2;18,6;1757
2023-10-03 21:00:00;12,6;100465;74;0,0067;0,0;2,6;244;4,6;-2,34;-1,12;0;0;nan;12,4;15,6;15,7;22,0;15,0;16,2;16,9;16,8;-3730,3;18,5;1758
2023-10-03 22:00:00;12,6;100498;73;0,0066;0,0;2,1;254;3,6;-2,02;-0,57;0;0;nan;12,4;15,6;15,7;22,0;14,7;16,0;16,9;16,8;-1674,9;18,3;1763
2023-10-03 23:00:00;12,2;100485;75;0,0066;0,0;2,1;241;3,2;-1,86;-1,05;0;0;nan;12,4;15,5;15,7;22,0;14,5;15,8;16,8;16,8;-3879,1;18,6;1757
2023-10-04 00:00:00;12,1;100525;78;0,0069;0,0;3,3;245;5,1;-2,88;-1,37;0;0;nan;12,4;15,5;15,7;22,0;14,2;15,6;16,7;16,8;-3873,5;18,5;1758
2023-10-04 01:00:00;12,1;100560;80;0,007;0,0;3,2;236;5,0;-2,62;-1,77;0;0;nan;12,4;15,5;15,7;22,0;14,0;15,4;16,6;16,8;-3929,8;18,6;1756
2023-10-04 02:00:00;12,1;100552;80;0,007;0,0;3,7;242;5,3;-3,27;-1,73;0;0;nan;12,4;15,5;15,7;22,0;13,9;15,2;16,5;16,8;-9990,0;18,7;1752
2023-10-04 03:00:00;12,3;100552;80;0,0071;0,0;3,7;236;5,8;-3,09;-2,07;0;0;nan;12,4;15,5;15,7;22,0;13,8;15,1;16,4;16,8;-9990,0;18,8;1750
2023-10-04 04:00:00;12,2;100562;80;0,007;0,0;3,2;236;4,8;-2,58;-1,77;0;0;nan;12,4;15,5;15,7;22,0;13,7;14,9;16,3;16,7;-9990,0;18,8;1752
2023-10-04 05:00:00;11,5;100566;81;0,0068;0,0;2,5;214;3,6;-1,39;-2,04;4;0;nan;12,4;15,5;15,7;22,0;13,6;14,8;16,2;16,7;-9990,0;18,7;1752
2023-10-04 06:00:00;11,9;100608;81;0,007;0,0;2,9;216;4,1;-1,72;-2,34;74;0;nan;12,4;15,5;15,7;22,0;13,4;14,7;16,1;16,7;-9990,0;18,7;1753
2023-10-04 07:00:00;13,0;100652;82;0,0076;0,0;2,5;223;3,4;-1,66;-1,78;191;0;nan;12,4;15,5;15,7;22,0;13,4;14,6;16,0;16,7;-9990,0;18,5;1760
2023-10-04 08:00:00;14,3;100675;77;0,0078;0,0;2,3;256;3,7;-2,12;-0,51;320;0;nan;12,4;15,5;15,7;22,0;13,6;14,6;16,0;16,7;-9990,0;19,1;1741
2023-10-04 09:00:00;15,2;100674;71;0,0076;0,0;3,7;273;5,8;-3,7;0,18;391;0;nan;12,4;15,5;15,7;22,0;14,1;14,6;15,9;16,7;-9990,0;19,1;1741
2023-10-04 10:00:00;15,8;100682;68;0,0075;0,0;3,6;250;5,9;-3,25;-1,18;350;0;nan;12,4;15,5;15,7;22,0;14,6;14,8;15,8;16,7;-9990,0;18,8;1750
2023-10-04 11:00:00;16,1;100658;66;0,0075;0,0;3,5;274;5,5;-3,41;0,26;325;0;nan;12,5;15,5;15,7;22,0;15,2;15,0;15,8;16,6;-9990,0;18,5;1758
2023-10-04 12:00:00;16,6;100616;63;0,0074;0,0;3,7;275;5,7;-3,61;0,33;300;0;nan;12,5;15,5;15,7;22,0;15,7;15,3;15,7;16,6;-9990,0;18,4;1761
2023-10-04 13:00:00;16,6;100586;62;0,0072;0,0;3,0;296;4,5;-2,64;1,26;234;0;nan;12,5;15,5;15,7;22,0;16,0;15,5;15,8;16,6;-9990,0;18,6;1756
2023-10-04 14:00:00;16,3;100567;63;0,0073;0,0;3,1;313;4,8;-2,17;2,02;159;0;nan;12,5;15,6;15,7;22,0;16,2;15,7;15,8;16,6;-9990,0;18,6;1755
2023-10-04 15:00:00;16,0;100523;66;0,0074;0,0;1,4;304;2,5;-0,88;0,6;101;0;nan;12,5;15,6;15,7;22,0;16,1;15,9;15,8;16,5;-9990,0;18,4;1761
2023-10-04 16:00:00;15,7;100515;66;0,0073;0,0;1,6;204;2,7;-0,64;-1,48;47;0;nan;12,5;15,6;15,7;22,0;16,1;16,0;15,9;16,5;-9990,0;18,3;1765
2023-10-04 17:00:00;14,6;100525;68;0,007;0,0;2,0;199;3,3;-0,68;-1,93;2;0;nan;12,5;15,6;15,7;22,0;15,8;16,0;15,9;16,5;-9990,0;18,4;1763
2023-10-04 18:00:00;13,6;100560;72;0,0069;0,0;1,9;214;3,0;-1,07;-1,58;0;0;nan;12,4;15,6;15,7;22,0;15,5;15,9;16,0;16,5;-9990,0;18,4;1763
2023-10-04 19:00:00;13,4;100550;72;0,0069;0,0;2,4;217;3,8;-1,44;-1,93;0;0;nan;12,4;15,6;15,7;22,0;15,1;15,8;16,0;16,5;-9990,0;18,6;1755
2023-10-04 20:00:00;13,7;100522;72;0,007;0,0;3,5;227;4,9;-2,51;-2,32;0;0;nan;12,4;15,6;15,7;22,0;14,8;15,6;16,0;16,5;-9990,0;18,5;1757
2023-10-04 21:00:00;13,4;100482;74;0,0071;0,0;4,0;223;5,8;-2,69;-2,88;0;0;nan;12,4;15,5;15,7;22,0;14,5;15,5;16,0;16,5;-9990,0;18,4;1761
2023-10-04 22:00:00;13,0;100470;76;0,007;0,0;3,8;228;5,4;-2,82;-2,57;0;0;nan;12,4;15,5;15,7;22,0;14,3;15,3;16,0;16,5;-9990,0;19,0;1745
2023-10-04 23:00:00;13,1;100430;75;0,007;0,0;3,3;231;5,0;-2,57;-2,05;0;0;nan;12,4;15,5;15,7;22,0;14,1;15,1;15,9;16,4;-9990,0;18,9;1747
2023-10-05 00:00:00;12,9;100395;75;0,0069;0,0;3,5;220;4,7;-2,22;-2,62;0;0;nan;12,4;15,5;15,7;22,0;14,0;15,0;15,9;16,4;-9990,0;18,8;1749
2023-10-05 01:00:00;12,6;100378;76;0,0069;0,0;2,8;199;4,1;-0,9;-2,62;0;0;nan;12,4;15,5;15,7;22,0;13,9;14,9;15,9;16,4;-9990,0;18,6;1756
2023-10-05 02:00:00;12,3;100388;76;0,0068;0,0;2,6;219;3,8;-1,61;-1,98;0;0;nan;12,4;15,5;15,7;22,0;13,7;14,8;15,8;16,4;-9990,0;18,3;1765
2023-10-05 03:00:00;12,5;100370;75;0,0068;0,0;2,1;222;3,4;-1,41;-1,55;0;0;nan;12,4;15,5;15,7;22,0;13,6;14,7;15,7;16,4;-9990,0;18,1;1770
2023-10-05 04:00:00;12,5;100370;76;0,0069;0,0;2,9;218;4,7;-1,75;-2,24;0;0;nan;12,4;15,5;15,7;22,0;13,5;14,6;15,7;16,4;-9990,0;18,1;1770
2023-10-05 05:00:00;12,1;100350;77;0,0068;0,0;2,6;213;3,7;-1,38;-2,14;1;0;nan;12,4;15,5;15,7;22,0;13,5;14,5;15,6;16,4;-9990,0;17,9;1777
2023-10-05 06:00:00;12,4;100348;78;0,007;0,0;3,5;213;5,5;-1,91;-2,94;30;0;nan;12,4;15,5;15,7;22,0;13,4;14,4;15,6;16,4;-9990,0;17,8;1780
2023-10-05 07:00:00;12,9;100363;78;0,0072;0,0;3,8;223;5,1;-2,54;-2,73;87;0;nan;12,4;15,5;15,7;22,0;13,4;14,3;15,5;16,4;-9990,0;17,7;1783
2023-10-05 08:00:00;14,3;100424;77;0,0078;0,0;2,8;257;5,0;-2,69;-0,64;207;0;nan;12,4;15,5;15,7;22,0;13,5;14,3;15,4;16,3;-9990,0;17,3;1795
2023-10-05 09:00:00;14,9;100477;74;0,0078;0,0;3,3;263;5,0;-3,17;-0,39;196;0;nan;12,4;15,5;15,7;22,0;14,0;14,3;15,4;16,3;-9990,0;17,2;1798
2023-10-05 10:00:00;15,2;100503;72;0,0077;0,0;2,9;275;4,6;-2,92;0,26;171;0;nan;12,4;15,5;15,7;22,0;14,4;14,5;15,3;16,3;-9990,0;17,2;1797
2023-10-05 11:00:00;15,1;100487;70;0,0074;0,0;3,0;271;4,9;-2,96;0,03;140;0;nan;12,4;15,5;15,7;22,0;14,7;14,6;15,3;16,3;-9990,0;17,4;1792
2023-10-05 12:00:00;15,8;100434;70;0,0078;0,0;3,5;271;5,3;-3,37;0,04;286;0;nan;12,5;15,5;15,7;22,0;14,9;14,8;15,3;16,3;-9990,0;17,5;1788
2023-10-05 13:00:00;16,2;100462;67;0,0077;0,0;4,1;286;6,1;-3,88;1,1;210;0;nan;12,6;15,5;15,7;22,0;15,2;15,0;15,3;16,3;-9990,0;17,3;1795
2023-10-05 14:00:00;16,2;100454;65;0,0074;0,0;3,8;291;5,4;-3,52;1,32;176;0;nan;12,5;15,5;15,7;22,0;15,4;15,1;15,3;16,2;-9990,0;17,2;1799
2023-10-05 15:00:00;16,3;100436;64;0,0073;0,0;2,8;284;4,2;-2,68;0,65;141;0;nan;12,4;15,5;15,7;22,0;15,4;15,2;15,3;16,2;-9990,0;17,3;1795
2023-10-05 16:00:00;15,6;100447;65;0,0072;0,0;1,2;246;1,9;-0,89;-0,39;38;0;nan;12,4;15,5;15,7;22,0;15,3;15,3;15,4;16,2;-9990,0;17,5;1788
2023-10-05 17:00:00;13,1;100502;77;0,0072;0,0;1,0;202;1,3;-0,35;-0,86;0;0;nan;12,4;15,5;15,7;22,0;15,0;15,3;15,4;16,2;-9990,0;17,2;1799
2023-10-05 18:00:00;12,8;100526;77;0,0071;0,0;1,5;210;2,0;-0,72;-1,23;0;0;nan;12,4;15,5;15,7;22,0;14,6;15,2;15,4;16,2;-9990,0;17,3;1794
2023-10-05 19:00:00;12,9;100530;77;0,0071;0,0;1,4;199;2,0;-0,45;-1,29;0;0;nan;12,4;15,5;15,7;22,0;14,3;15,1;15,5;16,2;-9990,0;17,2;1798
2023-10-05 20:00:00;12,0;100550;80;0,0069;0,0;1,0;196;1,6;-0,2;-0,72;0;0;nan;12,4;15,5;15,7;22,0;14,1;14,9;15,5;16,2;-9990,0;17,1;1799
2023-10-05 21:00:00;11,3;100557;82;0,0068;0,0;0,8;168;1,2;0,06;-0,29;0;0;nan;12,4;15,5;15,7;22,0;13,8;14,8;15,5;16,1;-9990,0;17,4;1792
2023-10-05 22:00:00;9,6;100566;88;0,0065;0,0;0,9;63;1,3;0,49;0,24;0;0;nan;12,4;15,5;15,7;22,0;13,5;14,6;15,4;16,1;-9990,0;17,1;1802
2023-10-05 23:00:00;9,8;100542;84;0,0064;0,0;0,9;154;1,7;0,38;-0,77;0;0;nan;12,3;15,5;15,7;22,0;13,2;14,4;15,4;16,1;-9990,0;17,1;1801
2023-10-06 00:00:00;10,3;100550;85;0,0066;0,0;1,2;150;2,0;0,41;-0,72;0;0;nan;12,3;15,5;15,7;22,0;12,8;14,2;15,3;16,1;-9990,0;17,1;1799
2023-10-06 01:00:00;8,8;100523;88;0,0062;0,0;0,6;83;1,2;0,34;0,04;0;0;nan;12,3;15,5;15,7;22,0;12,6;14,0;15,3;16,1;-9990,0;17,2;1796
2023-10-06 02:00:00;9,1;100500;87;0,0062;0,0;0,8;121;1,4;0,66;-0,39;0;0;nan;12,3;15,5;15,7;22,0;12,4;13,8;15,2;16,1;-9990,0;17,4;1792
2023-10-06 03:00:00;9,6;100490;86;0,0064;0,0;1,2;126;1,8;0,76;-0,56;0;0;nan;12,3;15,5;15,7;22,0;12,1;13,6;15,2;16,1;-9990,0;17,4;1790
2023-10-06 04:00:00;9,3;100492;85;0,0062;0,0;1,0;49;1,8;0,52;0,45;0;0;nan;12,3;15,5;15,7;22,0;11,9;13,4;15,1;16,1;-9990,0;17,4;1791
2023-10-06 05:00:00;9,5;100438;86;0,0063;0,02;2,0;131;2,9;1,46;-1,27;4;0;nan;12,3;15,5;15,7;22,0;11,8;13,3;15,0;16,1;-9990,0;17,6;1786
2023-10-06 06:00:00;10,7;100436;87;0,0069;0,0;2,1;140;3,1;1,32;-1,57;88;0;nan;12,3;15,4;15,6;22,0;11,6;13,1;14,9;16,0;-9990,0;17,8;1780
2023-10-06 07:00:00;13,0;100490;85;0,0079;0,0;0,8;82;1,8;0,41;0,06;217;0;nan;12,3;15,4;15,6;22,0;11,7;13,0;14,8;16,0;-9990,0;17,8;1778
2023-10-06 08:00:00;14,8;100478;78;0,0082;0,0;1,9;208;3,9;-0,86;-1,6;291;0;nan;12,3;15,4;15,6;22,0;12,2;13,0;14,7;16,0;-9990,0;17,8;1779
2023-10-06 09:00:00;16,1;100444;72;0,0082;0,0;1,9;212;3,5;-0,91;-1,45;365;0;nan;12,3;15,5;15,6;22,0;12,9;13,2;14,6;16,0;-9990,0;17,9;1777
2023-10-06 10:00:00;17,6;100414;65;0,0081;0,0;3,0;200;5,0;-1,0;-2,78;420;0;nan;12,3;15,5;15,6;22,0;13,7;13,4;14,6;16,0;-9990,0;17,9;1776
2023-10-06 11:00:00;18,6;100360;61;0,0081;0,0;2,7;220;4,2;-1,7;-2,05;404;0;nan;12,4;15,5;15,6;22,0;14,5;13,8;14,6;16,0;-9990,0;17,7;1781
2023-10-06 12:00:00;19,5;100293;55;0,0078;0,0;2,5;252;4,5;-2,31;-0,74;360;0;nan;12,4;15,5;15,6;22,0;15,2;14,2;14,6;15,9;-9990,0;17,6;1785
2023-10-06 13:00:00;19,5;100285;54;0,0076;0,0;3,4;236;5,5;-2,68;-1,82;293;0;nan;12,4;15,5;15,6;22,0;15,7;14,6;14,6;15,9;-9990,0;17,7;1783
2023-10-06 14:00:00;19,4;100263;54;0,0076;0,0;2,5;252;4,3;-2,38;-0,79;221;0;nan;12,4;15,5;15,6;22,0;16,0;15,0;14,7;15,9;-9990,0;17,7;1781
2023-10-06 15:00:00;18,9;100222;57;0,0077;0,0;1,3;183;1,8;-0,05;-1,17;95;0;nan;12,4;15,5;15,6;22,0;16,1;15,3;14,8;15,9;-9990,0;17,7;1784
2023-10-06 16:00:00;17,9;100218;63;0,008;0,0;1,4;205;2,2;-0,57;-1,22;36;0;nan;12,4;15,5;15,6;22,0;15,9;15,4;14,9;15,8;-9990,0;17,5;1789
2023-10-06 17:00:00;16,6;100242;65;0,0076;0,0;2,3;231;3,4;-1,71;-1,38;2;0;nan;12,4;15,5;15,6;22,0;15,6;15,5;15,0;15,8;-9990,0;18,1;1771
2023-10-06 18:00:00;14,8;100262;70;0,0073;0,0;0,7;301;1,1;-0,02;0,01;0;0;nan;12,4;15,6;15,6;22,0;15,2;15,5;15,1;15,8;-9990,0;17,9;1776
2023-10-06 19:00:00;13,5;100278;74;0,0071;0,0;0,8;179;1,2;0,01;-0,65;0;0;nan;12,4;15,5;15,6;22,0;14,8;15,3;15,1;15,8;-9990,0;17,8;1779
2023-10-06 20:00:00;12,9;100286;77;0,0071;0,0;1,1;166;1,9;0,24;-0,97;0;0;nan;12,4;15,5;15,7;22,0;14,4;15,1;15,2;15,8;-9990,0;18,0;1774
2023-10-06 21:00:00;11,8;100278;80;0,0069;0,0;0,6;137;1,7;0,31;-0,33;0;0;nan;12,4;15,5;15,7;22,0;14,0;14,9;15,2;15,8;-9990,0;17,7;1782
2023-10-06 22:00:00;13,5;100266;77;0,0074;0,0;1,8;208;2,8;-0,67;-1,28;0;0;nan;12,3;15,5;15,7;22,0;13,7;14,7;15,2;15,8;-9990,0;17,4;1791
2023-10-06 23:00:00;11,9;100250;82;0,0071;0,0;1,5;148;2,5;0,78;-1,25;0;0;nan;12,3;15,5;15,7;22,0;13,4;14,5;15,2;15,8;-9990,0;17,6;1786
2023-10-07 00:00:00;11,5;100238;83;0,007;0,0;1,3;195;1,9;-0,34;-1,22;0;0;nan;12,3;15,5;15,7;22,0;13,2;14,3;15,2;15,8;-9990,0;17,5;1787
2023-10-07 01:00:00;11,2;100220;84;0,0069;0,0;1,6;193;2,5;-0,37;-1,55;0;0;nan;12,3;15,5;15,6;22,0;12,9;14,2;15,1;15,8;-9990,0;17,5;1788
2023-10-07 02:00:00;10,8;100203;86;0,0069;0,0;1,2;173;1,9;0,15;-1,17;0;0;nan;12,3;15,5;15,6;22,0;12,7;14,0;15,1;15,8;-9990,0;17,5;1787
2023-10-07 03:00:00;10,6;100200;86;0,0068;0,0;1,3;159;2,2;0,45;-1,16;0;0;nan;12,3;15,5;15,6;22,0;12,6;13,8;15,0;15,8;-9990,0;17,6;1787
2023-10-07 04:00:00;11,0;100198;88;0,0072;0,0;0,9;161;1,5;0,28;-0,79;0;0;nan;12,3;15,5;15,6;22,0;12,4;13,7;15,0;15,8;-9990,0;17,6;1786
2023-10-07 05:00:00;12,6;100190;85;0,0077;0,0;1,8;174;3,0;0,19;-1,74;0;0;nan;12,3;15,5;15,6;22,0;12,5;13,6;14,9;15,8;-9990,0;17,2;1797
2023-10-07 06:00:00;13,3;100179;85;0,0081;0,0;2,0;154;2,8;0,86;-1,79;25;0;nan;12,3;15,5;15,6;22,0;12,6;13,5;14,8;15,8;-9990,0;17,1;1801
2023-10-07 07:00:00;15,0;100212;82;0,0087;0,0;2,2;224;4,1;-1,47;-1,53;85;0;nan;12,3;15,5;15,6;22,0;12,8;13,5;14,8;15,8;-9990,0;17,1;1801
2023-10-07 08:00:00;16,1;100222;80;0,0092;0,0;2,3;216;4,0;-1,34;-1,86;109;0;nan;12,3;15,5;15,6;22,0;13,2;13,6;14,7;15,8;-9990,0;17,0;1805
2023-10-07 09:00:00;16,7;100233;80;0,0094;0,0;2,0;231;3,1;-1,54;-1,26;191;0;nan;12,3;15,5;15,6;22,0;13,6;13,7;14,7;15,7;-9990,0;16,9;1807
2023-10-07 10:00:00;19,2;100198;72;0,01;0,0;2,9;261;5,2;-2,75;-0,46;415;0;nan;12,4;15,5;15,6;22,0;14,3;14,0;14,6;15,7;-9990,0;17,2;1798
2023-10-07 11:00:00;20,9;100166;65;0,0101;0,0;3,3;264;5,7;-3,29;-0,36;452;0;nan;12,4;15,5;15,6;22,0;15,0;14,3;14,6;15,7;-9990,0;17,2;1798
2023-10-07 12:00:00;22,2;100155;61;0,0102;0,0;3,8;276;6,2;-3,81;0,4;392;0;nan;12,4;15,5;15,6;22,0;15,7;14,7;14,7;15,7;-9990,0;17,3;1794
2023-10-07 13:00:00;23,0;100162;58;0,0101;0,0;4,1;254;7,2;-3,88;-1,09;308;0;nan;12,4;15,5;15,6;22,0;16,3;15,1;14,7;15,7;-9990,0;17,3;1793
2023-10-07 14:00:00;23,2;100155;55;0,0098;0,0;3,8;260;6,1;-3,74;-0,68;237;0;nan;12,4;15,5;15,6;22,0;16,6;15,5;14,8;15,7;-9990,0;17,4;1792
2023-10-07 15:00:00;22,6;100097;53;0,0091;0,0;3,5;247;5,1;-3,19;-1,33;111;0;nan;12,4;15,5;15,6;22,0;16,7;15,8;14,9;15,7;-9990,0;17,4;1792
2023-10-07 16:00:00;21,3;100138;54;0,0084;0,0;2,2;258;3,0;-2,02;-0,44;24;0;nan;12,4;15,5;15,6;22,0;16,6;16,0;15,0;15,7;-9990,0;17,4;1792
2023-10-07 17:00:00;20,0;100175;55;0,008;0,0;2,2;239;3,3;-1,61;-0,97;1;0;nan;12,4;15,5;15,6;22,0;16,4;16,0;15,1;15,6;-9990,0;16,9;1806
2023-10-07 18:00:00;18,6;100190;61;0,0081;0,0;0,9;194;2,0;-0,16;-0,64;0;0;nan;12,4;15,5;15,6;22,0;16,0;16,0;15,2;15,6;-9990,0;16,8;1810
2023-10-07 19:00:00;17,2;100223;67;0,0081;0,0;1,7;223;2,6;-1,12;-1,2;0;0;nan;12,4;15,5;15,6;22,0;15,7;15,9;15,3;15,6;-9990,0;16,9;1807
2023-10-07 20:00:00;17,6;100212;66;0,0082;0,0;1,2;218;2,0;-0,74;-0,95;0;0;nan;12,3;15,5;15,6;22,0;15,4;15,8;15,4;15,6;-9990,0;16,8;1812
2023-10-07 21:00:00;15,2;100200;74;0,0079;0,0;1,0;129;1,3;0,72;-0,57;0;0;nan;12,3;15,5;15,6;22,0;15,1;15,7;15,4;15,6;-9990,0;16,9;1806
2023-10-07 22:00:00;15,5;100275;73;0,008;0,0;1,5;195;2,2;-0,23;-0,86;0;0;nan;12,3;15,6;15,6;22,0;14,8;15,5;15,5;15,6;-9990,0;17,5;1787
2023-10-07 23:00:00;18,3;100252;62;0,0081;0,0;2,7;250;4,4;-2,42;-0,88;0;0;nan;12,3;15,5;15,6;22,0;14,7;15,3;15,5;15,6;-9990,0;17,6;1784
2023-10-08 00:00:00;19,0;100267;58;0,0079;0,0;2,5;267;4,6;-2,46;-0,12;0;0;nan;12,3;15,5;15,6;22,0;14,7;15,2;15,5;15,6;-9990,0;17,5;1789
2023-10-08 01:00:00;15,2;100274;70;0,0076;0,0;1,0;154;1,4;0,3;-0,6;0;0;nan;12,3;15,5;15,6;22,0;14,6;15,2;15,4;15,7;-9990,0;17,3;1793